Sarasota, FL

5:52 AM EST on December 10, 2019 (GMT -0500)
Sarasota-bradenton

Weather History for KSRQ - October, 2019

Change the Weather History Date:

Friday, October 4, 2019

  Actual Average Record
Temperature  
Mean Temperature 82 °F 79 °F  
Max Temperature 91 °F 87 °F 95 °F (1923)
Min Temperature 71 °F 71 °F 52 °F (1929)
Degree Days  
Heating Degree Days 0 0  
Month to date heating degree days 0 0  
Since 1 July heating degree days 0 0  
Cooling Degree Days 16 14  
Month to date cooling degree days 75 58  
Year to date cooling degree days 3532 2847  
Growing Degree Days 32 (Base 50)    
Moisture  
Dew Point 70 °F    
Average Humidity 72    
Maximum Humidity 90    
Minimum Humidity 50    
Precipitation  
Precipitation 0.00 in 0.13 in 3.30 in (1948)
Month to date precipitation T 0.54  
Year to date precipitation 43.38 45.97  
Sea Level Pressure  
Sea Level Pressure 29.96 in    
Wind  
Wind Speed 6 mph ()    
Max Wind Speed 13 mph    
Max Gust Speed 17 mph    
Visibility 10.0 miles    
Events      
T = Trace of Precipitation, MM = Missing Value Source: Averaged Metar Reports

Daily Weather History Graph

Daily Weather History Graph

Search for Another Location

Airport or City:

Astronomy

Oct. 04, 2019 Rise Set
Actual Time 7:24 AM EDT 7:13 PM EDT
Civil Twilight 7:00 AM EDT 7:36 PM EDT
Nautical Twilight 6:33 AM EDT 8:03 PM EDT
Astronomical Twilight 6:06 AM EDT 8:30 PM EDT
Moon 1:26 PM EDT (10/4) No Moon Set
Length of Visible Light 12h 35m
Length of Day
11h 48m
Waxing Crescent, 39% of the Moon is Illuminated
Oct 4
Waxing Crescent
Oct 5
First Quarter
Oct 13
Full
Oct 21
Last Quarter
Oct 27
New

Hourly Weather History & Observations

Time (EDT) Temp. Heat Index Dew Point Humidity Pressure Visibility Wind Dir Wind Speed Gust Speed Precip Events Conditions
12:53 AM 78.1 °F - 69.1 °F 74% 29.99 in 10.0 mi East 9.2 mph - N/A   Clear
1:53 AM 75.9 °F - 69.1 °F 79% 29.98 in 10.0 mi East 5.8 mph - N/A   Clear
2:53 AM 75.0 °F - 69.1 °F 82% 29.96 in 10.0 mi East 5.8 mph - N/A   Clear
3:53 AM 73.9 °F - 69.1 °F 85% 29.96 in 10.0 mi ENE 3.5 mph - N/A   Clear
4:53 AM 72.0 °F - 68.0 °F 87% 29.96 in 10.0 mi Calm Calm - N/A   Clear
5:53 AM 72.0 °F - 68.0 °F 87% 29.96 in 10.0 mi ENE 3.5 mph - N/A   Clear
6:53 AM 72.0 °F - 68.0 °F 87% 29.98 in 10.0 mi ENE 4.6 mph - N/A   Clear
7:53 AM 72.0 °F - 68.0 °F 87% 29.99 in 10.0 mi ENE 5.8 mph - N/A   Clear
8:53 AM 75.9 °F - 70.0 °F 82% 30.00 in 10.0 mi East 5.8 mph - N/A   Clear
9:53 AM 80.1 °F 83.2 °F 70.0 °F 71% 30.01 in 10.0 mi ENE 9.2 mph - N/A   Clear
10:53 AM 84.0 °F 88.4 °F 70.0 °F 63% 30.01 in 10.0 mi SE 6.9 mph - N/A   Scattered Clouds
11:53 AM 86.0 °F 90.1 °F 69.1 °F 57% 30.00 in 10.0 mi East 10.4 mph - N/A   Scattered Clouds
12:53 PM 87.1 °F 89.9 °F 66.9 °F 51% 29.98 in 10.0 mi East 6.9 mph - N/A   Partly Cloudy
1:53 PM 87.1 °F 89.9 °F 66.9 °F 51% 29.96 in 10.0 mi East 5.8 mph - N/A   Scattered Clouds
2:53 PM 87.1 °F 92.0 °F 70.0 °F 57% 29.93 in 10.0 mi WSW 9.2 mph - N/A   Scattered Clouds
3:53 PM 87.1 °F 93.6 °F 72.0 °F 61% 29.91 in 10.0 mi West 10.4 mph - N/A   Partly Cloudy
4:53 PM 88.0 °F 94.7 °F 72.0 °F 59% 29.90 in 10.0 mi West 11.5 mph - N/A   Mostly Cloudy
5:53 PM 86.0 °F 92.2 °F 72.0 °F 63% 29.90 in 10.0 mi West 11.5 mph - N/A   Clear
6:53 PM 82.9 °F 88.0 °F 72.0 °F 69% 29.91 in 10.0 mi NW 9.2 mph - N/A   Clear
7:53 PM 81.0 °F 85.8 °F 73.0 °F 77% 29.91 in 10.0 mi NW 8.1 mph - N/A   Clear
8:53 PM 81.0 °F 85.8 °F 73.0 °F 77% 29.92 in 10.0 mi North 5.8 mph - N/A   Scattered Clouds
9:53 PM 82.0 °F 87.9 °F 73.9 °F 76% 29.94 in 10.0 mi NNE 4.6 mph - N/A   Scattered Clouds
10:53 PM 82.0 °F 87.9 °F 73.9 °F 76% 29.96 in 10.0 mi ENE 6.9 mph - N/A   Partly Cloudy
11:53 PM 81.0 °F 85.8 °F 73.0 °F 77% 29.97 in 10.0 mi East 5.8 mph - N/A   Partly Cloudy